Miscellaneous Hydrologic Data Report
Issued by NWS (Baltimore/Washington) Sterling, VA
1 of 28 available versions  First Miscellaneous Hydrologic Data Report Previous Miscellaneous Hydrologic Data Report  Print this page Close this Window


000
ASUS41 KLWX 202110
RWRLWX

REGIONAL WEATHER ROUNDUP
NATIONAL WEATHER SERVICE BALTIMORE MD/WASHINGTON DC
400 PM EST MON NOV 20 2017

Note: "FAIR" indicates few or no clouds below 12,000 feet
with no significant weather and/or obstructions to visibility.
 TC=TEMPERATURE CELSIUS

 * =Non NWS site. Station does not report precipitation (e.g. rain,
    snow, etc.), thunder, or fog.

DCZ001-MDZ009-015-VAZ040>042-051-053>054-202200-
WASHINGTON METRO

CITY           SKY/WX    TMP DP  RH WIND       PRES   REMARKS
WASHINGTON NAT PTCLDY    52  21  29 SW9       30.18S
DULLES         PTCLDY    50  23  34 S9        30.16S
ANDREWS AFB    CLEAR     50  19  29 W8        30.16S
FT BELVOIR     CLEAR     52  19  27 W6        30.18R
QUANTICO       CLEAR     53  21  28 SW7       30.20R
COLLEGE PARK*  CLEAR     50  19  29 SW6       30.17S
LEESBURG*      CLEAR     52  27  37 SW9       30.16S
MANASSAS*      CLEAR     51  23  33 SW6       30.18S
GAITHERSBURG*  CLEAR     49  21  33 SW7       30.16S

$$

MDZ006>007-011-014-202200-
BALTIMORE METRO

CITY           SKY/WX    TMP DP  RH WIND       PRES   REMARKS
BWI AIRPORT    PTCLDY    49  22  34 W10       30.16S
MD SCIENCE CTR   N/A     51  20  29 MISG      30.16R
MARTIN STATE   CLEAR     50  23  34 W9        30.18S
FORT MEADE*    CLEAR     48  23  37 W8        30.19S

$$

MDZ012-015-019>023-202200-
MARYLAND EASTERN SHORE

CITY           SKY/WX    TMP DP  RH WIND       PRES   REMARKS
OCEAN CITY     CLEAR     48  26  42 W9        30.20R
SALISBURY      CLEAR     48  26  42 W14       30.19R
CAMBRIDGE*     CLEAR     50  25  37 W6        30.19R
EASTON*        CLEAR     50  21  32 NW12      30.21R

$$

MDZ017>025-202200-
SOUTHERN MARYLAND

CITY           SKY/WX    TMP DP  RH WIND       PRES   REMARKS
PATUXENT RIVER PTCLDY    51  23  33 W10       30.19R
ST INIGOES     CLEAR     51  27  39 W5        30.19S
LEONARDTOWN*   CLEAR     50  23  34 W5        30.19F

$$

MDZ003>005-202200-
NORTH CENTRAL MARYLAND

CITY           SKY/WX    TMP DP  RH WIND       PRES   REMARKS
FREDERICK*     CLEAR     52  16  24 S9        30.18S
HAGERSTOWN APT CLEAR     49  20  31 W8G17     30.13R
WESTMINSTER*   CLEAR     48  25  40 SW9       30.13S

$$

MDZ501>502-202200-
WESTERN MARYLAND

CITY           SKY/WX    TMP DP  RH WIND       PRES   REMARKS
OAKLAND*       CLEAR     36  21  55 SW8       30.04R
CUMBERLAND*    CLEAR     50  23  34 SW7       30.16S

$$

VAZ025>031-202200-
SHENANDOAH VALLEY

CITY           SKY/WX    TMP DP  RH WIND       PRES   REMARKS
WINCHESTER*    CLEAR     48  21  34 SW6       30.14R
FRONT ROYAL*   CLEAR     50  21  32 MISG      30.14R
LURAY*         CLEAR     48  21  34 S10G17    30.15S
NEW MARKET*    CLEAR     48  20  33 S12       30.15R
STAUNTON*      CLEAR     47  21  36 SW12      30.19R
WAYNESBORO*    CLEAR     47  19  33 SW8       30.17R

$$

WVZ021-048>050-054>055-202200-
EASTERN WEST VIRGINIA PANHANDLE

CITY           SKY/WX    TMP DP  RH WIND       PRES   REMARKS
MARTINSBURG    CLEAR     50  19  29 W9        30.13R
PETERSBURG*    CLEAR     50  21  32 W7        30.13S

$$

VAZ036>039-050-202200-
CENTRAL FOOTHILLS

CITY           SKY/WX    TMP DP  RH WIND       PRES   REMARKS
CHARLOTTESVILL CLEAR     53  19  26 VRB5      30.17S
CULPEPER*      CLEAR     52  19  26 SW8       30.19R
ORANGE*        CLEAR     50  21  32 SW7       30.18R
GORDONSVILLE*  CLEAR     53  21  29 S8        30.17S
WARRENTON*     NOT AVBL

$$

VAZ055>057-202200-
NORTH AND CENTRAL PIEDMONT

CITY           SKY/WX    TMP DP  RH WIND       PRES   REMARKS
FREDERICKSBRG* CLEAR     53  23  31 W7        30.18S
STAFFORD*      CLEAR     51  19  28 SW6       30.22R

$$

NCZ024-NYZ072-PAZ021-071-VAZ022-071-202200-
OTHER REGIONAL OBSERVATIONS

CITY           SKY/WX    TMP DP  RH WIND       PRES   REMARKS
NEW YORK CITY  CLEAR     46  22  38 W8G22     30.08R
PHILADELPHIA   MOCLDY    48  22  35 W18       30.13R
PITTSBURGH     PTCLDY    42  22  44 SW15G23   30.07S
ROANOKE        MOSUNNY   52  22  30 W7        30.20S
RICHMOND       PTCLDY    53  22  29 SW7       30.20R
RALEIGH        MOSUNNY   56  24  29 CALM      30.22F

$$

ANZ530>537-202200-
MARINE OBSERVATIONS

STATION/POSITION TIME  TEMP    WIND        PRES
                       AIR SEA DIR/SP/G
                 (UTC) (F)     (DEG/KT/KT) (MB)
THOMAS PT LIGHT  2100   50 52  270/ 10/ 12   N/A
BALT KEY BRIDGE  2042   50     240/ 10/ 12 1021.5R
COVE POINT       2042   51     290/  7/  9 1022.8R
LEWISETTA        2042   52 52  260/  8/  9 1022.4R
SOLOMONS ISLAND  2042   51 54  230/ 10/ 15 1021.9R
PINEY POINT      2042          340/  6/  7   N/A

$$



Close this window


The National Weather Service prepares its forecasts and other services in collaboration with agencies like the US Geological Survey, US Bureau of Reclamation, US Army Corps of Engineers, Natural Resource Conservation Service, National Park Service, ALERT Users Group, Bureau of Indian Affairs, and many state and local emergency managers across the country. For details, please click here.

National Weather Service
(Baltimore/Washington) Sterling Weather Forecast Office
43858 Weather Service Rd.
Sterling, VA 20166
(703) 996-2200
Page last modified: 20-Nov-2017 9:10 PM
Disclaimer
Credits
Glossary
Privacy Policy
About Us
Career Opportunities